Location: Newark
(46.9000°N, 28.3500°E)
Time: 05:11:56
(UTC+00:00)

Explorer 7 - Pass Details

Date: 28 August 2019
Orbit: 485 x 680 km, 50.3° (Epoch: 19 September)

Event Time Altitude Azimuth Distance (km) Brightness Sun altitude
Rises 08:19:11 0° 276° (W) 3,008 10.3 46.3°
Reaches altitude 10° 08:21:38 10° 280° (W) 2,076 9.5 46.5°
Maximum altitude 08:26:21 56° 359° (N) 765 7.9 47.1°
Drops below altitude 10° 08:30:49 10° 78° (ENE) 1,972 10.0 47.5°
Sets 08:33:06 0° 83° (E) 2,842 10.7 47.8°
